Duncan, OK

6:51 PM CST on November 13, 2019 (GMT -0600)
Halliburton

Weather History for KDUC - September, 2019

Change the Weather History Date:

Tuesday, September 10, 2019

  Actual Average (WUND) Record (WUND)
Temperature  
Mean Temperature 82 °F -  
Max Temperature 93 °F - - (-1)
Min Temperature 72 °F - - (-1)
Cooling Degree Days 18    
Growing Degree Days 32 (Base 50)    
Moisture  
Dew Point 67 °F    
Average Humidity 62    
Maximum Humidity 86    
Minimum Humidity 39    
Precipitation  
Precipitation 0.00 in - - ()
Sea Level Pressure  
Sea Level Pressure 30.04 in    
Wind  
Wind Speed 14 mph (SSE)    
Max Wind Speed 23 mph    
Max Gust Speed 28 mph    
Visibility 10 miles    
Events      
Averages and records for this station are not official NWS values.
T = Trace of Precipitation, MM = Missing Value Source: NWS Daily Summary

Daily Weather History Graph

Daily Weather History Graph

Search for Another Location

Airport or City:

Astronomy

Sep. 10, 2019 Rise Set
Actual Time 7:11 AM CDT 7:45 PM CDT
Civil Twilight 6:45 AM CDT 8:11 PM CDT
Nautical Twilight 6:16 AM CDT 8:40 PM CDT
Astronomical Twilight 5:45 AM CDT 9:11 PM CDT
Moon 6:13 PM CDT (9/10) 3:49 AM CDT (9/10)
Length of Visible Light 13h 25m
Length of Day
12h 34m
Waxing Gibbous, 89% of the Moon is Illuminated
Sep 10
Waxing Gibbous
Sep 13
Full
Sep 21
Last Quarter
Sep 28
New
Oct 5
First Quarter

Hourly Weather History & Observations

Time (CDT) Temp. Heat Index Dew Point Humidity Pressure Visibility Wind Dir Wind Speed Gust Speed Precip Events Conditions
12:15 AM 79.7 °F - 66.0 °F 63% 29.98 in 10.0 mi SSE 15.0 mph 21.9 mph N/A   Clear
12:35 AM 79.5 °F - 66.4 °F 64% 29.99 in 10.0 mi SSE 17.3 mph 23.0 mph N/A   Clear
12:55 AM 79.2 °F - 66.6 °F 65% 29.99 in 10.0 mi SSE 13.8 mph - N/A   Clear
1:15 AM 78.4 °F - 66.7 °F 67% 30.00 in 10.0 mi SSE 11.5 mph - N/A   Clear
1:35 AM 78.1 °F - 66.9 °F 68% 30.00 in 10.0 mi SSE 12.7 mph - N/A   Clear
1:55 AM 77.5 °F - 66.9 °F 70% 30.00 in 10.0 mi SSE 11.5 mph 18.4 mph N/A   Clear
2:15 AM 77.0 °F - 67.1 °F 71% 30.01 in 10.0 mi SSE 10.4 mph - N/A   Clear
2:35 AM 76.8 °F - 66.9 °F 71% 30.01 in 10.0 mi SSE 11.5 mph - N/A   Clear
2:55 AM 76.6 °F - 66.9 °F 72% 30.01 in 10.0 mi SSE 10.4 mph - N/A   Clear
3:15 AM 76.5 °F - 66.7 °F 72% 30.01 in 10.0 mi SSE 10.4 mph - N/A   Clear
3:35 AM 75.9 °F - 66.7 °F 73% 30.01 in 10.0 mi SSE 10.4 mph - N/A   Clear
3:55 AM 75.4 °F - 66.7 °F 74% 30.01 in 10.0 mi SE 8.1 mph - N/A   Clear
4:15 AM 75.0 °F - 66.7 °F 75% 30.02 in 10.0 mi SE 11.5 mph - N/A   Clear
4:35 AM 74.8 °F - 66.7 °F 76% 30.02 in 10.0 mi SE 10.4 mph - N/A   Clear
5:15 AM 74.3 °F - 67.1 °F 78% 30.02 in 10.0 mi SE 10.4 mph 16.1 mph N/A   Clear
5:35 AM 73.6 °F - 67.1 °F 80% 30.03 in 10.0 mi SE 8.1 mph - N/A   Clear
6:15 AM 72.7 °F - 67.3 °F 83% 30.04 in 10.0 mi SE 6.9 mph - N/A   Scattered Clouds
6:35 AM 72.3 °F - 67.5 °F 85% 30.04 in 10.0 mi SE 6.9 mph - N/A   Scattered Clouds
6:55 AM 72.1 °F - 67.6 °F 86% 30.05 in 10.0 mi SE 6.9 mph - N/A   Clear
7:35 AM 72.3 °F - 68.0 °F 86% 30.06 in 10.0 mi SE 9.2 mph - N/A   Scattered Clouds
7:55 AM 73.2 °F - 68.2 °F 84% 30.07 in 10.0 mi SE 9.2 mph - N/A   Clear
8:15 AM 74.7 °F - 68.7 °F 82% 30.07 in 10.0 mi SSE 12.7 mph - N/A   Clear
8:35 AM 76.1 °F - 69.1 °F 79% 30.08 in 10.0 mi SSE 12.7 mph - N/A   Clear
9:15 AM 76.6 °F - 69.6 °F 79% 30.08 in 10.0 mi South 17.3 mph 21.9 mph N/A   Clear
9:55 AM 79.2 °F - 70.3 °F 74% 30.09 in 10.0 mi South 17.3 mph - N/A   Clear
10:15 AM 81.1 °F 84.9 °F 70.7 °F 70% 30.09 in 10.0 mi SSE 17.3 mph - N/A   Scattered Clouds
10:35 AM 81.5 °F 85.3 °F 70.3 °F 69% 30.10 in 10.0 mi South 18.4 mph - N/A   Scattered Clouds
10:55 AM 82.4 °F 86.7 °F 70.9 °F 68% 30.10 in 10.0 mi South 16.1 mph - N/A   Scattered Clouds
11:15 AM 84.4 °F 89.4 °F 71.1 °F 64% 30.09 in 10.0 mi South 17.3 mph - N/A   Scattered Clouds
11:35 AM 85.6 °F 91.1 °F 71.2 °F 62% 30.09 in 10.0 mi South 17.3 mph 20.7 mph N/A   Clear
11:55 AM 86.2 °F 91.4 °F 70.9 °F 60% 30.08 in 10.0 mi South 18.4 mph - N/A   Clear
12:15 PM 87.3 °F 92.8 °F 70.7 °F 58% 30.08 in 10.0 mi SSE 16.1 mph 23.0 mph N/A   Clear
12:35 PM 86.9 °F 91.3 °F 69.6 °F 56% 30.07 in 10.0 mi SSE 11.5 mph - N/A   Scattered Clouds
12:55 PM 88.2 °F 92.9 °F 69.8 °F 54% 30.07 in 10.0 mi SSE 18.4 mph 23.0 mph N/A   Scattered Clouds
1:15 PM 89.6 °F 94.7 °F 69.8 °F 52% 30.07 in 10.0 mi South 16.1 mph 25.3 mph N/A   Clear
1:35 PM 90.5 °F 95.1 °F 69.1 °F 49% 30.06 in 10.0 mi South 17.3 mph 25.3 mph N/A   Clear
1:55 PM 91.2 °F 95.5 °F 68.4 °F 47% 30.06 in 10.0 mi South 23.0 mph 27.6 mph N/A   Clear
2:15 PM 91.0 °F 94.3 °F 67.3 °F 45% 30.06 in 10.0 mi South 18.4 mph 21.9 mph N/A   Clear
2:35 PM 91.4 °F 94.5 °F 66.4 °F 44% 30.05 in 10.0 mi SSE 20.7 mph - N/A   Clear
2:55 PM 91.2 °F 94.1 °F 66.7 °F 44% 30.04 in 10.0 mi South 13.8 mph 25.3 mph N/A   Scattered Clouds
3:15 PM 92.1 °F 95.3 °F 66.9 °F 43% 30.03 in 10.0 mi SSW 17.3 mph 24.2 mph N/A   Scattered Clouds
3:35 PM 92.1 °F 94.8 °F 66.2 °F 42% 30.03 in 10.0 mi SSE 16.1 mph 25.3 mph N/A   Scattered Clouds
3:55 PM 93.0 °F 95.5 °F 65.7 °F 40% 30.02 in 10.0 mi South 19.6 mph 25.3 mph N/A   Scattered Clouds
4:15 PM 91.9 °F 95.0 °F 66.2 °F 43% 30.01 in 10.0 mi SSE 16.1 mph 24.2 mph N/A   Scattered Clouds
4:35 PM 91.6 °F 93.5 °F 64.8 °F 41% 30.01 in 10.0 mi South 20.7 mph - N/A   Scattered Clouds
4:55 PM 92.5 °F 94.1 °F 64.4 °F 39% 30.01 in 10.0 mi South 19.6 mph 23.0 mph N/A   Clear
5:35 PM 92.5 °F 95.0 °F 65.3 °F 41% 30.00 in 10.0 mi South 18.4 mph 23.0 mph N/A   Scattered Clouds
5:55 PM 91.9 °F 94.5 °F 65.8 °F 42% 30.00 in 10.0 mi South 19.6 mph - N/A   Scattered Clouds
6:15 PM 91.0 °F 93.8 °F 66.0 °F 44% 30.00 in 10.0 mi SSE 15.0 mph - N/A   Scattered Clouds
6:35 PM 90.5 °F 93.3 °F 66.2 °F 45% 30.00 in 10.0 mi SSE 15.0 mph - N/A   Clear
6:55 PM 89.2 °F 92.0 °F 66.4 °F 47% 30.00 in 10.0 mi SE 12.7 mph - N/A   Clear
7:15 PM 88.0 °F 90.7 °F 66.4 °F 49% 30.00 in 10.0 mi SSE 15.0 mph - N/A   Clear
7:35 PM 86.4 °F 88.7 °F 66.6 °F 51% 30.01 in 10.0 mi SE 12.7 mph - N/A   Clear
8:15 PM 83.7 °F 86.0 °F 66.6 °F 56% 30.02 in 10.0 mi SE 9.2 mph - N/A   Clear
8:35 PM 82.9 °F 85.0 °F 66.0 °F 56% 30.02 in 10.0 mi SE 10.4 mph - N/A   Clear
8:55 PM 82.0 °F 84.1 °F 66.0 °F 58% 30.03 in 10.0 mi ESE 10.4 mph - N/A   Clear
9:35 PM 81.7 °F 84.2 °F 67.1 °F 61% 30.04 in 10.0 mi SE 12.7 mph - N/A   Clear
9:55 PM 81.3 °F 83.8 °F 67.1 °F 62% 30.05 in 10.0 mi SE 13.8 mph - N/A   Clear
10:15 PM 81.1 °F 83.5 °F 67.1 °F 62% 30.06 in 10.0 mi SE 12.7 mph - N/A   Clear
10:35 PM 80.8 °F 83.1 °F 66.7 °F 62% 30.06 in 10.0 mi SSE 13.8 mph - N/A   Clear
10:55 PM 80.4 °F 82.7 °F 66.6 °F 63% 30.06 in 10.0 mi SE 11.5 mph - N/A   Clear
11:15 PM 80.4 °F 82.6 °F 66.4 °F 62% 30.07 in 10.0 mi SSE 13.8 mph - N/A   Clear
11:35 PM 80.1 °F 82.2 °F 66.4 °F 63% 30.07 in 10.0 mi SSE 13.8 mph 23.0 mph N/A   Clear
11:55 PM 79.3 °F - 66.6 °F 65% 30.07 in 10.0 mi SSE 12.7 mph - N/A   Clear